Starlink 5970

operational
NORAD ID: 56450 Int'l Des: 2023-064 Owner: SPXS Country: US Constellation: starlink
LEOCIRCULAR

关于 Starlink 5970

正在加载描述...

实时位置

正在加载3D地球...

即将过境

高度历史

Altitude vs Time

uPlot chart will show altitude changes over time

两行轨道根数

1 56450U 23064C 25303.89970972 .00000864 00000-0 80223-4 0 9996
2 56450 69.9989 111.7512 0002975 270.7114 89.3704 14.98333416135805
Epoch: Oct 30, 2025 • Age: 12 hours

当前状态

高度 583.1 km
速度 7.57 km/s
星下点 58.02°N, 30.36°W
发射日期 May 10, 2023
运行时间 2.4 years
类型 internet

技术详情

分类 Payload
质量 305.00 kg
干质量 290.00 kg
总质量 305.00 kg
长度 0.20 m
直径 2.80 m
跨度 9.00 m
形状 Box + pan
制造商 SPXS
平台类型 Starlink
阶段状态 In Orbit
所有者/国家 SPXS/US

大型星座

Loading constellations...